NOAA 16 DEB, 41196

Orbit data source: Space-Track

NOAA 16 DEB, 41196 is space debris in SSO originally from a launch on Thu, 21 Sep 2000 UTC launched from the Air Force Western Test Range (AFWTR). Debris objects in space refer to the collection of defunct objects orbiting the Earth. Examples of debris include non-operational satellites, rocket bodies, and fragments generated from explosions, collisions, or faulty payload assembly.

Loading next visibility...
Identifier
41196, 2000-055CZ
Orbit
SSO
Country
Flag of USUS
Related business
Manufacturer
Unknown
Mission
Spacecraft
Bus & Motor
Unknown
Mass
Unknown
Launch date (UTC)
2000-09-21 (25 years ago)
Launch vehicle
Unknown
Launch site
Air Force Western Test Range (AFWTR)
Object type
Payload
Rocket body
Debris
Shape & HBR
Unknown shape, 0.1 m
Radar Cross Section
Small (<0.1 m²)

Expand to show TLE details & history
Last TLE update: 9 hours ago

TLE from 9 hours ago
0 NOAA 16 DEB
1 41196U 00055CZ  25291.03677324  .00004381  00000-0  23497-2 0  9995
2 41196  98.7533 312.5673 0052109 268.5370  90.9832 14.12810240503937
Epoch: 2025-10-18T00:52Z
TLE epoch observation values (Epoch: 2025-10-18T00:52:57.207Z)
Latitude
-0.00012°
Longitude
-87.44459°
Altitude
853.517 km
Speed
7.425 km/s
True Right ascension
20h 50m 16s
True Declination
0° 00' 00"
Sunlit
Object was in daylight at epoch
Visualization orbit readout
Latitude
Unknown
Longitude
Unknown
Altitude
Unknown
Speed
Unknown
Apparent Right ascension
Unknown
Apparent Declination
Unknown
Sunlit
N/A
Visualization observer readout
Local Sidereal Time
04:28:26
Azimuth
Unknown
Elevation
Unknown
Doppler factor
Unknown
Orbital elements
Apogee altitude
884.59 km
Perigee altitude
809.292 km
Semi-major axis
7,225.078 km
Eccentricity
0.00521
Inclination
98.7533°
RAAN
312.5673°
Arg. of periapsis
268.537°
True anomaly
91.58016°
Mean anomaly
90.9832°
Eccentric anomaly
91.28169°
Mean motion
3.5341 °/min
Orbital period
101.86 mins
BSTAR
0.0023497
Loading maneuver chart data...
Computing Atmospheric mass density...
Loading historical data...
Loading historical data...
Loading historical data...
Loading historical data...
Loading historical data...
Loading historical data...
Loading historical data...

Documentation

Showing up to 5 results
|